Regional Weather Roundup
Issued by NWS Sioux Falls, SD

Home | Current Version | Previous Version | Text Only | Print | Product List | Glossary On
Versions: 1 2 3 4 5 6 7 8 9 10 11 12 13 14 15 16 17 18 19 20 21 22 23 24 25 26 27 28 29 30 31 32 33 34 35 36 37 38 39 40 41 42 43 44 45 46 47 48 49 50
000
ASUS43 KFSD 300402
RWRFSD

WEATHER ROUNDUP FOR SE SOUTH DAKOTA/SW MINNESOTA/NW IOWA
NATIONAL WEATHER SERVICE SIOUX FALLS SD
1100 PM CDT WED MAR 29 2017

NOTE: "FAIR" INDICATES FEW OR NO CLOUDS BELOW 12,000 FEET WITH NO
SIGNIFICANT WEATHER AND OR OBSTRUCTIONS TO VISIBILITY.


SDZ038>040-050-052>070-300500-
SOUTHEAST SOUTH DAKOTA

CITY           SKY/WX    TMP DP  RH WIND       PRES   REMARKS
CHAMBERLAIN    CLOUDY    43  39  85 E13       30.01F
HURON          CLOUDY    43  36  76 SE9       30.03F
MADISON        CLOUDY    37  37 100 E13G22    30.02F
MITCHELL       CLOUDY    42  37  82 E9        30.03F
SIOUX FALLS    LGT RAIN  39  39 100 E15       30.00F FOG
WINNER         CLOUDY    42  38  85 E12       29.99F
YANKTON        CLOUDY    39  36  87 N12       29.97F
$$

MNZ071-072-080-081-089-090-097-098-300500-
SOUTHWEST MINNESOTA

CITY           SKY/WX    TMP DP  RH WIND       PRES   REMARKS
FAIRMONT       LGT RAIN  39  37  92 E14       30.01F
JACKSON        LGT SNOW  37  37 100 E15       30.00F
LUVERNE        LGT RAIN  36  34  93 NE13      30.00F
MARSHALL       LGT RAIN  40  38  93 E8        30.07F
MONTEVIDEO     CLOUDY    41  37  87 SE10      30.09F
PIPESTONE      CLOUDY    37  34  87 E8        30.01F
REDWOOD FALLS  CLOUDY    41  37  86 E8        30.07F
TRACY          DRIZZLE   40  38  96 E12       30.05F
WINDOM         DRIZZLE   37  37 100 NE17      30.03S
WORTHINGTON    LGT RAIN  37  36  96 NE16      30.00F
$$

IAZ001>003-012>014-020>022-031-032-NEZ013-014-SDZ071-300500-
NORTHWEST IOWA

CITY           SKY/WX    TMP DP  RH WIND       PRES   REMARKS
CHEROKEE       CLOUDY    39  38  95 E22G33    29.90F
DENISON        CLOUDY    41  39  93 E18G33    29.86S
ESTHERVILLE    CLOUDY    39  37  92 E23G31    29.97F
LE MARS        CLOUDY    41  37  87 E20G32    29.93F
ORANGE CITY    CLOUDY    39  37  93 E12G18    29.93F
SHELDON        CLOUDY    39  37  93 E17G25    29.94F
SIOUX CITY     CLOUDY    41  38  89 E18G29    29.88F
SPENCER        CLOUDY    40  37  89 E23G33    29.95F
STORM LAKE     CLOUDY    37  37 100 E30       29.89F
$$

ABBREVIATIONS USED IN REMARKS
   TC - TEMPERATURE IN CELSIUS
  WCI - WIND CHILL INDEX
   HX - HEAT INDEX
  VSB - VISIBILITY




USA.gov is the U.S. government's official web portal to all federal, state and local government web resources and services.